{"data":{"norad_id":62867,"epoch":"2026-09-20T09:23:19.794048Z","epoch_age_seconds":177553,"freshness":"STALE","line1":"1 62867U 25022P   26263.39120132  .00011150  00000+0  34085-3 0  9990","line2":"2 62867  53.1605 302.1259 0001141  79.6604 280.4527 15.34380582 91751","mean_motion":15.34380582,"eccentricity":0.0001141,"inclination_deg":53.1605,"raan_deg":302.1259,"arg_perigee_deg":79.6604,"mean_anomaly_deg":280.4527,"bstar":0.00034085,"rev_number":9175,"period_min":93.848945750019,"perigee_km":461.98040874723,"apogee_km":463.54150166061,"semimajor_km":6840.8979552039,"source":"CELESTRAK","updated_at":"2026-09-22T09:00:49.678362Z"}}